• In Russia
  • List of Countries
  • For 7 days
  • Water Temperature
  • Satellite Maps
  • Weather Map
  • Weather Widgets
  • user-avatar
    Login

    Hourly Weather Jewłach

    Today, 27 February, Monday

    Time Temperature Precipitation Wind Pressure Humidity
    00:00 +5°C° 0 mm 5 mps 768 mmHg 62%
    01:00 +5°C° 0 mm 4 mps 769 mmHg 61%
    02:00 +4°C° 0 mm 4 mps 769 mmHg 61%
    03:00 +4°C° 0 mm 4 mps 769 mmHg 58%
    04:00 +3°C° 0 mm 4 mps 769 mmHg 58%
    05:00 +3°C° 0 mm 3 mps 769 mmHg 58%
    06:00 +3°C° 0 mm 3 mps 770 mmHg 58%
    07:00 +5°C° 0 mm 2 mps 769 mmHg 56%
    08:00 +5°C° 0 mm 2 mps 769 mmHg 53%
    09:00 +6°C° 0 mm 2 mps 770 mmHg 50%
    10:00 +7°C° 0 mm 2 mps 769 mmHg 48%
    11:00 +8°C° 0 mm 2 mps 768 mmHg 47%
    12:00 +9°C° 0 mm 2 mps 767 mmHg 45%
    13:00 +10°C° 0 mm 1 mps 767 mmHg 44%
    14:00 +11°C° 0 mm 1 mps 766 mmHg 43%
    15:00 +11°C° 0 mm 1 mps 766 mmHg 42%
    16:00 +10°C° 0 mm 1 mps 766 mmHg 47%
    17:00 +8°C° 0 mm 1 mps 766 mmHg 51%
    18:00 +7°C° 0 mm 1 mps 766 mmHg 56%
    19:00 +7°C° 0 mm 1 mps 766 mmHg 57%
    20:00 +6°C° 0 mm 1 mps 766 mmHg 59%
    21:00 +6°C° 0 mm 1 mps 766 mmHg 61%
    22:00 +5°C° 0 mm 1 mps 766 mmHg 62%
    23:00 +5°C° 0 mm 1 mps 766 mmHg 63%

    Tomorrow, 28 February, Tuesday

    Time Temperature Precipitation Wind Pressure Humidity
    00:00 +5°C° 0 mm 1 mps 766 mmHg 65%
    01:00 +5°C° 0 mm 1 mps 766 mmHg 66%
    02:00 +4°C° 0 mm 1 mps 765 mmHg 68%
    03:00 +4°C° 0 mm 1 mps 765 mmHg 69%
    04:00 +4°C° 0 mm 1 mps 765 mmHg 71%
    05:00 +4°C° 0 mm 1 mps 765 mmHg 73%
    06:00 +3°C° 0 mm 0 mps 766 mmHg 74%
    07:00 +5°C° 0 mm 0 mps 766 mmHg 67%
    08:00 +8°C° 0 mm 1 mps 766 mmHg 59%
    09:00 +10°C° 0 mm 1 mps 766 mmHg 52%
    10:00 +11°C° 0 mm 1 mps 766 mmHg 49%
    11:00 +13°C° 0 mm 1 mps 766 mmHg 45%
    12:00 +15°C° 0 mm 1 mps 766 mmHg 42%
    13:00 +15°C° 0 mm 1 mps 766 mmHg 41%
    14:00 +16°C° 0 mm 1 mps 765 mmHg 40%
    15:00 +16°C° 0 mm 1 mps 765 mmHg 40%
    16:00 +15°C° 0 mm 1 mps 766 mmHg 45%
    17:00 +13°C° 0 mm 2 mps 766 mmHg 51%
    18:00 +10°C° 0 mm 2 mps 767 mmHg 57%
    19:00 +10°C° 0 mm 2 mps 767 mmHg 59%
    20:00 +9°C° 0 mm 2 mps 767 mmHg 61%
    21:00 +8°C° 0 mm 2 mps 768 mmHg 64%
    22:00 +8°C° 0 mm 2 mps 768 mmHg 66%
    23:00 +7°C° 0 mm 2 mps 768 mmHg 69%

    Day after tomorrow, 1 March, Wednesday

    Time Temperature Precipitation Wind Pressure Humidity
    00:00 +7°C° 0 mm 2 mps 768 mmHg 71%
    01:00 +7°C° 0 mm 1 mps 768 mmHg 75%
    02:00 +7°C° 0 mm 1 mps 768 mmHg 78%
    03:00 +6°C° 0 mm 1 mps 768 mmHg 81%
    04:00 +5°C° 0 mm 0 mps 768 mmHg 83%
    05:00 +4°C° 0 mm 0 mps 768 mmHg 85%
    06:00 +4°C° 0 mm 0 mps 768 mmHg 88%
    07:00 +6°C° 0 mm 0 mps 768 mmHg 78%
    08:00 +8°C° 0 mm 0 mps 768 mmHg 69%
    09:00 +10°C° 0 mm 0 mps 768 mmHg 60%
    10:00 +12°C° 0 mm 0 mps 767 mmHg 56%
    11:00 +14°C° 0 mm 1 mps 767 mmHg 52%
    12:00 +16°C° 0 mm 1 mps 766 mmHg 48%
    13:00 +16°C° 0 mm 1 mps 766 mmHg 46%
    14:00 +18°C° 0 mm 1 mps 765 mmHg 45%
    15:00 +18°C° 0 mm 1 mps 765 mmHg 43%
    16:00 +15°C° 0 mm 1 mps 765 mmHg 49%
    17:00 +14°C° 0 mm 1 mps 765 mmHg 56%
    18:00 +12°C° 0 mm 1 mps 765 mmHg 62%
    19:00 +10°C° 0 mm 2 mps 765 mmHg 62%
    20:00 +10°C° 0 mm 2 mps 765 mmHg 63%
    21:00 +10°C° 0 mm 2 mps 766 mmHg 64%
    22:00 +9°C° 0 mm 2 mps 765 mmHg 65%
    23:00 +8°C° 0 mm 2 mps 765 mmHg 67%

    2 March, Thursday

    Time Temperature Precipitation Wind Pressure Humidity
    00:00 +8°C° 0 mm 2 mps 765 mmHg 68%
    01:00 +8°C° 0 mm 1 mps 765 mmHg 72%
    02:00 +8°C° 0 mm 1 mps 765 mmHg 75%
    03:00 +7°C° 0 mm 1 mps 764 mmHg 78%
    04:00 +6°C° 0 mm 0 mps 764 mmHg 81%
    05:00 +5°C° 0 mm 0 mps 764 mmHg 83%
    06:00 +5°C° 0 mm 0 mps 764 mmHg 86%
    07:00 +7°C° 0 mm 0 mps 764 mmHg 77%
    08:00 +10°C° 0 mm 1 mps 764 mmHg 68%
    09:00 +12°C° 0 mm 1 mps 764 mmHg 58%
    10:00 +13°C° 0 mm 1 mps 763 mmHg 54%
    11:00 +15°C° 0 mm 2 mps 762 mmHg 51%
    12:00 +16°C° 0 mm 2 mps 762 mmHg 47%
    13:00 +16°C° 0 mm 2 mps 761 mmHg 46%
    14:00 +17°C° 0 mm 2 mps 760 mmHg 46%
    15:00 +17°C° 0 mm 2 mps 760 mmHg 45%
    16:00 +15°C° 0 mm 2 mps 760 mmHg 51%
    17:00 +14°C° 0 mm 2 mps 761 mmHg 56%
    18:00 +13°C° 0 mm 2 mps 761 mmHg 62%
    19:00 +12°C° 0 mm 2 mps 761 mmHg 62%
    20:00 +10°C° 0 mm 2 mps 761 mmHg 63%
    21:00 +10°C° 0 mm 2 mps 761 mmHg 63%
    22:00 +10°C° 0 mm 1 mps 761 mmHg 65%
    23:00 +10°C° 0 mm 1 mps 761 mmHg 67%

    3 March, Friday

    Time Temperature Precipitation Wind Pressure Humidity
    00:00 +9°C° 0 mm 1 mps 761 mmHg 69%
    01:00 +9°C° 0 mm 1 mps 760 mmHg 70%
    02:00 +9°C° 0 mm 1 mps 760 mmHg 72%
    03:00 +9°C° 0 mm 1 mps 760 mmHg 73%
    04:00 +9°C° 0 mm 1 mps 760 mmHg 74%
    05:00 +9°C° 0 mm 1 mps 760 mmHg 74%
    06:00 +9°C° 0 mm 1 mps 760 mmHg 75%
    07:00 +10°C° 0 mm 1 mps 760 mmHg 68%
    08:00 +12°C° 0 mm 1 mps 759 mmHg 62%
    09:00 +14°C° 0 mm 1 mps 759 mmHg 55%
    10:00 +15°C° 0 mm 1 mps 759 mmHg 51%
    11:00 +16°C° 0 mm 1 mps 759 mmHg 46%
    12:00 +19°C° 0 mm 1 mps 758 mmHg 42%
    13:00 +19°C° 0 mm 1 mps 758 mmHg 40%
    14:00 +20°C° 0 mm 1 mps 758 mmHg 39%
    15:00 +20°C° 0 mm 1 mps 758 mmHg 37%
    16:00 +19°C° 0 mm 1 mps 758 mmHg 43%
    17:00 +16°C° 0 mm 1 mps 758 mmHg 49%
    18:00 +13°C° 0 mm 0 mps 759 mmHg 55%
    19:00 +14°C° 0 mm 1 mps 759 mmHg 57%
    20:00 +13°C° 0 mm 1 mps 760 mmHg 59%
    21:00 +13°C° 0 mm 1 mps 760 mmHg 61%
    22:00 +13°C° 0 mm 1 mps 760 mmHg 63%
    23:00 +12°C° 0 mm 1 mps 760 mmHg 66%

    4 March, Saturday

    Time Temperature Precipitation Wind Pressure Humidity
    00:00 +12°C° 0 mm 1 mps 760 mmHg 68%
    01:00 +12°C° 0 mm 1 mps 760 mmHg 68%
    02:00 +11°C° 0 mm 1 mps 761 mmHg 69%
    03:00 +11°C° 0 mm 1 mps 761 mmHg 70%
    04:00 +11°C° 0 mm 1 mps 761 mmHg 70%
    05:00 +11°C° 0 mm 1 mps 762 mmHg 71%
    06:00 +11°C° 0 mm 1 mps 762 mmHg 72%
    07:00 +12°C° 0.1 mm 1 mps 762 mmHg 67%
    08:00 +13°C° 0.1 mm 1 mps 763 mmHg 62%
    09:00 +15°C° 0.1 mm 1 mps 763 mmHg 57%
    10:00 +15°C° 0.1 mm 1 mps 763 mmHg 55%
    11:00 +16°C° 0.1 mm 1 mps 763 mmHg 54%
    12:00 +16°C° 0.1 mm 2 mps 763 mmHg 52%
    13:00 +18°C° 0 mm 1 mps 763 mmHg 51%
    14:00 +18°C° 0 mm 1 mps 763 mmHg 50%
    15:00 +18°C° 0 mm 1 mps 763 mmHg 49%
    16:00 +16°C° 0 mm 1 mps 763 mmHg 54%
    17:00 +15°C° 0 mm 1 mps 764 mmHg 60%
    18:00 +14°C° 0 mm 1 mps 764 mmHg 66%
    19:00 +13°C° 0 mm 1 mps 765 mmHg 68%
    20:00 +13°C° 0 mm 1 mps 765 mmHg 70%
    21:00 +12°C° 0 mm 2 mps 766 mmHg 72%
    22:00 +12°C° 0 mm 2 mps 766 mmHg 75%
    23:00 +10°C° 0 mm 2 mps 766 mmHg 77%
    Show more